[[{"header":{"parameterUnit":"m.s-1","parameterCategory":1,"la1":30.2992,"la2":30.254,"lo1":-89.0895,"lo2":-89.0443,"dy":0.0025,"dx":0.0025,"nx":19,"ny":19,"refTime":"2026-04-03T09:00:00:Z","depth":0,"parameterNumber":2,"parameterNumberName":"U-component_of_WINDS"},"data":[0,0,0,-1.0608,-1.061,-1.0734,-1.0734,-1.0895,-1.0897,0,0,0,0,0,0,0,0,0,0,0,-1.0569,-1.057,-1.0608,-1.0611,-1.0734,-1.0735,-1.0895,-1.0897,0,0,0,0,0,0,0,0,0,0,0,-1.0568,-1.0569,-1.057,-1.0611,-1.0734,-1.0735,-1.0895,-1.0802,0,0,0,0,0,0,0,0,0,0,-1.0682,-1.0641,-1.0569,-1.057,-1.0612,-1.0734,-1.0735,-1.0797,-1.0807,-1.0839,0,-1.0863,0,-1.0882,-1.0907,-1.0908,0,0,0,-1.0614,-1.0633,-1.0668,-1.0571,-1.0613,-1.0733,-1.0679,-1.0803,-1.0814,-1.0853,-1.0865,-1.0871,-1.0885,-1.0908,-1.0909,-1.1073,-1.1073,0,0,-1.0607,-1.059,-1.066,-1.0675,-1.0652,-1.0675,-1.0683,-1.081,-1.0824,-1.0865,-1.0875,-1.0887,-1.0909,-1.091,-1.1072,-1.1073,0,0,0,-1.0585,-1.0585,-1.0618,-1.0669,-1.0691,-1.0679,-1.0688,-1.0818,-1.083,-1.0877,-1.0889,-1.091,-1.0912,-1.1072,-1.1073,-1.1086,0,0,0,-1.0581,-1.0573,-1.0615,-1.0606,-1.0688,-1.0755,-1.0693,-1.0821,-1.0836,-1.0888,-1.091,-1.0914,-1.1071,-1.1072,-1.1084,-1.1095,0,0,0,-1.0562,-1.057,-1.0587,-1.0604,-1.0656,-1.0753,-1.0772,-1.0825,-1.0843,-1.0908,-1.0914,-1.107,-1.1072,-1.1082,-1.1093,-1.1134,0,0,0,-1.0537,-1.0597,-1.0587,-1.066,-1.0655,-1.0759,-1.0772,-1.0851,-1.0907,-1.0911,-1.1071,-1.1072,-1.1082,-1.1091,-1.1132,-1.1166,-1.1178,0,0,-1.0604,-1.0605,-1.065,-1.0644,-1.0744,-1.0741,-1.0847,-1.0916,-1.094,-1.1028,-1.1033,-1.1084,-1.1092,-1.1134,-1.1251,-1.126,0,0,0,-1.0666,-1.0698,-1.0728,-1.0779,-1.0832,-1.088,-1.0935,-1.0962,-1.1037,-1.098,-1.1111,-1.1116,-1.1141,-1.1159,-1.1167,-1.119,-1.1079,-1.1079,-1.1079,-1.0737,-1.0762,-1.0839,-1.0879,-1.093,-1.0986,-1.1031,-1.1077,-1.1089,-1.112,-1.1146,-1.1213,-1.1233,-1.1239,-1.1263,-1.1165,-1.1165,-1.1166,-1.1166,-1.0839,-1.0889,-1.0903,-1.0982,-1.101,-1.1079,-1.1138,-1.1144,-1.1215,-1.1195,-1.1219,-1.1195,-1.1248,-1.1271,-1.1167,-1.1167,-1.1166,-1.1166,-1.1166,-1.089,-1.0918,-1.0947,-1.1026,-1.1085,-1.1126,-1.1193,-1.1216,-1.124,-1.1263,-1.1295,-1.1295,-1.1299,-1.1276,-1.1276,-1.1277,-1.1277,-1.1277,-1.1277,-1.093,-1.0963,-1.1014,-1.1076,-1.1114,-1.1167,-1.1226,-1.1266,-1.1316,-1.1328,-1.1329,-1.1339,-1.1248,-1.1225,-1.1281,-1.128,-1.128,-1.1279,-1.1279,-1.1025,-1.1008,-1.1087,-1.1124,-1.1201,-1.126,-1.1289,-1.1368,-1.1404,-1.1437,-1.1444,-1.1371,-1.1375,-1.1369,-1.135,-1.1436,-1.1436,-1.1436,-1.1436,-1.1068,-1.1072,-1.1159,-1.1218,-1.1279,-1.1314,-1.1408,-1.1457,-1.1505,-1.153,-1.1521,-1.1498,-1.1491,-1.1499,-1.149,-1.1473,-1.1588,-1.1589,-1.1589,-1.1129,-1.114,-1.1213,-1.1256,-1.1319,-1.1374,-1.1464,-1.1535,-1.1587,-1.1595,-1.1551,-1.1544,-1.1508,-1.1494,-1.1501,-1.1487,-1.1456,0,0]},{"header":{"parameterUnit":"m.s-1","parameterCategory":1,"la1":30.2992,"la2":30.254,"lo1":-89.0895,"lo2":-89.0443,"dy":0.0025,"dx":0.0025,"nx":19,"ny":19,"refTime":"2026-04-03T09:00:00:Z","depth":0,"parameterNumber":3,"parameterNumberName":"V-component_of_WINDS"},"data":[0,0,0,3.8591,3.8593,3.8673,3.8674,3.8778,3.8779,0,0,0,0,0,0,0,0,0,0,0,3.857,3.8571,3.8591,3.8593,3.8673,3.8674,3.8777,3.8779,0,0,0,0,0,0,0,0,0,0,0,3.857,3.8571,3.8572,3.8594,3.8673,3.8674,3.8777,3.8716,0,0,0,0,0,0,0,0,0,0,3.8637,3.8621,3.8571,3.8572,3.8594,3.8673,3.8674,3.8713,3.872,3.8743,0,3.8766,0,3.8774,3.8786,3.8786,0,0,0,3.8591,3.8616,3.8635,3.8572,3.8595,3.8673,3.8636,3.8716,3.8724,3.8752,3.8767,3.8771,3.8776,3.8786,3.8787,3.8934,3.8935,0,0,3.8586,3.8586,3.863,3.864,3.863,3.8634,3.8639,3.8721,3.8737,3.8767,3.8773,3.8777,3.8787,3.8788,3.8933,3.8934,0,0,0,3.8575,3.8583,3.86,3.8636,3.8651,3.8636,3.8642,3.8733,3.8739,3.8774,3.8779,3.8788,3.8789,3.8932,3.8934,3.8975,0,0,0,3.8572,3.8576,3.8598,3.8599,3.8649,3.8693,3.8653,3.8733,3.8743,3.8778,3.8788,3.879,3.8932,3.8933,3.8972,3.8994,0,0,0,3.8564,3.8575,3.8588,3.8599,3.8633,3.8692,3.8702,3.8735,3.8746,3.8786,3.879,3.8931,3.8933,3.8969,3.899,3.9034,0,0,0,3.8555,3.8622,3.8589,3.8666,3.8633,3.8718,3.8702,3.8764,3.8804,3.8788,3.8932,3.8934,3.8968,3.8987,3.9031,3.9071,3.9088,0,0,3.864,3.8633,3.8678,3.8651,3.8742,3.8705,3.8802,3.8837,3.884,3.8902,3.8906,3.8973,3.8989,3.9033,3.9181,3.9194,0,0,0,3.8705,3.8738,3.8762,3.8801,3.8831,3.8859,3.888,3.8893,3.8946,3.8873,3.9,3.901,3.9036,3.9055,3.9066,3.9088,3.8942,3.8942,3.8942,3.8825,3.8827,3.8902,3.8914,3.8952,3.8974,3.9005,3.9026,3.9015,3.9045,3.9064,3.9153,3.9176,3.9184,3.9207,3.9085,3.9085,3.9085,3.9085,3.895,3.8997,3.8983,3.9051,3.9053,3.9109,3.9133,3.9123,3.9175,3.9139,3.9162,3.9123,3.9199,3.9219,3.9088,3.9088,3.9087,3.9087,3.9087,3.9029,3.9052,3.9068,3.9126,3.9169,3.9178,3.923,3.9228,3.9227,3.9249,3.9269,3.9268,3.9267,3.9258,3.9259,3.9259,3.9259,3.926,3.926,3.9104,3.9122,3.9166,3.9205,3.9231,3.9264,3.9287,3.9311,3.9337,3.9332,3.9332,3.9318,3.9206,3.9178,3.9265,3.9264,3.9263,3.9263,3.9262,3.9231,3.9203,3.9272,3.9298,3.9343,3.9387,3.9385,3.9434,3.9454,3.9479,3.9461,3.9379,3.937,3.9361,3.9338,3.946,3.946,3.946,3.946,3.9298,3.9295,3.9366,3.9407,3.9447,3.9452,3.9529,3.9547,3.9561,3.9573,3.9555,3.9524,3.9515,3.9512,3.95,3.9479,3.9634,3.9634,3.9634,3.9377,3.9377,3.9444,3.9459,3.9495,3.9525,3.9597,3.9644,3.9653,3.9641,3.9583,3.9576,3.9526,3.9509,3.9496,3.9477,3.9437,0,0]}]]